Showing default

HULIANWANG DIGUI-158, 68132

Orbit data source: Space-Track

HULIANWANG DIGUI-158, 68132 is a payload satellite owned by Zhongguo Xingwang (CN) in LEO that was launched on Thu, 12 Mar 2026 UTC via a CHANG ZHENG 8A launch vehicle from the Wenchang Satellite Launch Center (WSC). Payload-class satellites include a variety of spacecraft equipped with specific instruments for various scientific and technological missions. These include communications satellites like Starlink; space stations such as the ISS; scientific satellites like the Hubble; Earth observation satellites from companies like Planet Labs, Umbra, and HawkEye 360; GPS; miniature CubeSats for education and research; and military/defense satellites.

Loading next visibility...
Identifier
68132, 2026-047D
Orbit
LEO
Country
Flag of CNCN / PRC
Related business
Manufacturer
CAST?
Mission
Operational spacecraft
Bus & Motor
XINGWANG C, Unknown motor
Mass
~700 kg wet, ~700 kg dry
Launch date (UTC)
2026-03-12 (2 months ago)
Launch vehicle
CHANG ZHENG 8A
Launch site
Wenchang Satellite Launch Center (WSC)
Object type
Payload
Rocket body
Debris
Shape & HBR
Unknown shape, 1.1 m
Radar Cross Section
RCS unknown

Expand to show TLE details & history
Last TLE update: 19 hours ago

TLE from 19 hours ago
0 HULIANWANG DIGUI-158
1 68132U 26047D   26118.78536954 -.00000121  00000-0  13492-4 0  9992
2 68132  50.0134 233.7803 0000679  80.1018 279.9938 13.44009962  6484
Epoch: 2026-04-28T18:50Z
TLE epoch observation values (Epoch: 2026-04-28T18:50:55.928Z)
Latitude
0.00005°
Longitude
94.29161°
Altitude
1,094.802 km
Speed
7.306 km/s
True Right ascension
15h 35m 07s
True Declination
0° 00' 00"
Sunlit
Object was in full shadow at epoch
Visualization orbit readout
Latitude
Unknown
Longitude
Unknown
Altitude
Unknown
Speed
Unknown
Apparent Right ascension
Unknown
Apparent Declination
Unknown
Sunlit
N/A
Visualization observer readout
Local Sidereal Time
21:28:08
Azimuth
Unknown
Elevation
Unknown
Doppler factor
Unknown
Orbital elements
Apogee altitude
1,095.595 km
Perigee altitude
1,094.58 km
Semi-major axis
7,473.224 km
Eccentricity
0.00007
Inclination
50.0134°
RAAN
233.7803°
Arg. of periapsis
80.1018°
True anomaly
279.98614°
Mean anomaly
279.9938°
Eccentric anomaly
279.98997°
Mean motion
3.35955 °/min
Orbital period
107.16 mins
BSTAR
0.000013492
Loading maneuver chart data...
Computing Atmospheric mass density...
Loading historical data...
Loading historical data...
Loading historical data...
Loading historical data...
Loading historical data...
Loading historical data...
Loading historical data...

Documentation

Showing up to 5 results
|